This is the latest recevied weather packets stored in our database for station/object N6GPM. If no packets are shown the sender has not sent any weather packets the latest 10 day(s).
| Time | Temp. | Humidity | Pressure | Rain* | Wind** | Luminosity | Snow |
|---|---|---|---|---|---|---|---|
| 1777902186 | 11.11° C | 79% | 1018.4 hPa | 0 mm | - | 33 W/m² | - |
| 1777901885 | 10.56° C | 80% | 1018.1 hPa | 0 mm | - | 25 W/m² | - |
| 1777901582 | 10.56° C | 80% | 1018.4 hPa | 0 mm | - | 23 W/m² | - |
| 1777901279 | 10.56° C | 80% | 1018.2 hPa | 0 mm | - | 21 W/m² | - |
| 1777900977 | 10.56° C | 80% | 1018.2 hPa | 0 mm | - | 15 W/m² | - |
| 1777900674 | 10.56° C | 80% | 1018 hPa | 0 mm | - | 11 W/m² | - |
| 1777900371 | 10.56° C | 80% | 1018.3 hPa | 0 mm | - | 7 W/m² | - |
| 1777900068 | 10.56° C | 81% | 1018.1 hPa | 0 mm | - | 3 W/m² | - |
| 1777899764 | 10.56° C | 81% | 1018.3 hPa | 0 mm | - | 1 W/m² | - |
| 1777899461 | 10.56° C | 81% | 1018 hPa | 0 mm | - | 0 W/m² | - |
| 1777899159 | 10.56° C | 82% | 1018 hPa | 0 mm | - | 0 W/m² | - |
| 1777898856 | 10.56° C | 82% | 1018.1 hPa | 0 mm | - | 0 W/m² | - |
| 1777898554 | 10.56° C | 82% | 1018 hPa | 0 mm | - | 0 W/m² | - |
| 1777898251 | 10.56° C | 82% | 1017.9 hPa | 0 mm | - | 0 W/m² | - |
| 1777897948 | 10.56° C | 82% | 1017.9 hPa | 0 mm | - | 0 W/m² | - |
| 1777897644 | 10.56° C | 82% | 1018 hPa | 0 mm | - | 0 W/m² | - |
| 1777897340 | 10.56° C | 82% | 1017.9 hPa | 0 mm | - | 0 W/m² | - |
| 1777897036 | 10.56° C | 82% | 1017.8 hPa | 0 mm | - | 0 W/m² | - |
| 1777896734 | 10.56° C | 82% | 1017.6 hPa | 0 mm | - | 0 W/m² | - |
| 1777896431 | 10.56° C | 82% | 1017.6 hPa | 0 mm | - | 0 W/m² | - |
| 1777896128 | 10.56° C | 82% | 1017.9 hPa | 0 mm | - | 0 W/m² | - |
| 1777895826 | 10.56° C | 82% | 1017.7 hPa | 0 mm | - | 0 W/m² | - |
| 1777895523 | 10.56° C | 82% | 1018 hPa | 0 mm | - | 0 W/m² | - |
| 1777895221 | 10.56° C | 81% | 1017.8 hPa | 0 mm | - | 0 W/m² | - |
| 1777894918 | 10.56° C | 81% | 1017.9 hPa | 0 mm | - | 0 W/m² | - |
* Rain latest hour (hover to see other rain measurements)
** Current wind speed in m/s (hover to see current wind gust speed)